User: anonymous   Login
Location: Unspecified
(0.0000°N, 0.0000°E)
Time: 21:19:24
(UTC+00:00)
Language:

APRIZESAT 5 - Orbit

View from above orbital plane
View from above orbital plane
View from above satellite
View from above satellite

Ground track
Ground track

The orbit data is extracted from the following two-line orbital elements,

1 37792U 11044E   17141.92327492 +.00000123 +00000-0 +26053-4 0  9996
2 37792 098.3331 284.2191 0059464 133.8752 226.7391 14.75125143309848
Epoch (UTC): 21 May 2017 22:09:30
Eccentricity: 0.0059464
inclination: 98.3331°
perigee height: 603 km
apogee height: 686 km
right ascension of ascending node: 284.2191°
argument of perigee: 133.8752°
revolutions per day: 14.75125143
mean anomaly at epoch: 226.7391°
orbit number at epoch: 30984

The dashed part of the orbit path shows where the satellite is in the earth's shadow,  

DLR